Zurück zum Katalog

STARLINK-34082

AktivKommunikationVLEO
NORAD 64100·PAYLOAD·🇺🇸 United States

Gestartet May 23, 2025 von Vandenberg Space Force Base

Loading…

Nächste Überflüge (nächste 24 Stunden)

TLE

AktuellSource: CelesTrak SupGP

Epoche: Sep 14, 2026, 22:58 UTC

1 64100C 25110E   26257.95743056  .00013264  00000+0  39144-3 0  2577
2 64100  53.1578 227.2840 0001256  94.8196 320.8605 15.34419862    16

Verfolge STARLINK-34082 in Echtzeit mit AllMySat

Download on the App Store